Weather History for KNIP - August, 2014

Change the Weather History Date:

Sunday, August 10, 2014

  Actual Average Record
Temperature  
Mean Temperature 86 °F -  
Max Temperature 95 °F 88 °F 98 °F (2006)
Min Temperature 80 °F 73 °F 72 °F (2000)
Cooling Degree Days 22    
Growing Degree Days 36 (Base 50)    
Moisture  
Dew Point 73 °F    
Average Humidity 64    
Maximum Humidity 82    
Minimum Humidity 44    
Precipitation  
Precipitation 0.02 in - - ()
Sea Level Pressure  
Sea Level Pressure 30.00 in    
Wind  
Wind Speed 7 mph (WSW)    
Max Wind Speed 18 mph    
Max Gust Speed 25 mph    
Visibility 10 miles    
Events Rain    
Averages and records for this station are not official NWS values.
T = Trace of Precipitation, MM = Missing Value Source: NWS Daily Summary

Daily Weather History Graph

Daily Weather History Graph

Search for Another Location

Airport or City:

Trip Planner

Search our weather history database for the weather conditions in past years. The results will help you decide how hot, cold, wet, or windy it might be!

Date:

Astronomy

Aug. 10, 2014 Rise Set
Actual Time 6:50 AM EDT 8:12 PM EDT
Civil Twilight 6:25 AM EDT 8:38 PM EDT
Nautical Twilight 5:54 AM EDT 9:08 PM EDT
Astronomical Twilight 5:23 AM EDT 9:40 PM EDT
Moon 8:04 PM EDT (8/10) 6:38 AM EDT (8/10)
Length of Visible Light 14h 13m
Length of Day
13h 22m
Full, 100% of the Moon is Illuminated
Aug 10
Full
Aug 10
Full
Aug 17
Last Quarter
Aug 25
New
Sep 2
First Quarter

Hourly Weather History & Observations

Time (EDT) Temp. Heat Index Dew Point Humidity Pressure Visibility Wind Dir Wind Speed Gust Speed Precip Events Conditions
12:53 AM 82.9 °F 89.4 °F 73.9 °F 74% 30.02 in 10.0 mi SW 5.8 mph - N/A   Mostly Cloudy
1:53 AM 82.9 °F 89.4 °F 73.9 °F 74% 30.01 in 10.0 mi SW 3.5 mph - N/A   Mostly Cloudy
2:53 AM 82.9 °F 89.4 °F 73.9 °F 74% 29.99 in 10.0 mi SW 5.8 mph - N/A   Mostly Cloudy
3:53 AM 82.0 °F 87.9 °F 73.9 °F 76% 29.99 in 10.0 mi SW 6.9 mph - N/A   Mostly Cloudy
4:53 AM 82.0 °F 87.9 °F 73.9 °F 76% 29.99 in 10.0 mi SW 6.9 mph - N/A   Mostly Cloudy
5:53 AM 80.1 °F 84.5 °F 73.9 °F 81% 29.99 in 10.0 mi WSW 5.8 mph - N/A   Mostly Cloudy
6:53 AM 81.0 °F 86.2 °F 73.9 °F 79% 30.01 in 10.0 mi SSW 4.6 mph - N/A   Scattered Clouds
7:53 AM 81.0 °F 86.7 °F 75.0 °F 82% 30.01 in 10.0 mi SSW 5.8 mph - N/A   Mostly Cloudy
8:53 AM 84.0 °F 91.9 °F 75.0 °F 74% 30.04 in 10.0 mi West 8.1 mph - N/A   Mostly Cloudy
9:53 AM 88.0 °F 96.5 °F 73.9 °F 63% 30.04 in 10.0 mi WSW 8.1 mph - N/A   Scattered Clouds
10:53 AM 90.0 °F 97.9 °F 73.0 °F 57% 30.05 in 10.0 mi West 11.5 mph - N/A   Mostly Cloudy
11:53 AM 91.9 °F 98.4 °F 71.1 °F 50% 30.03 in 10.0 mi Variable 5.8 mph - N/A   Mostly Cloudy
12:53 PM 93.9 °F 100.3 °F 70.0 °F 46% 30.01 in 10.0 mi Variable 3.5 mph - N/A   Mostly Cloudy
1:19 PM 93.9 °F 102.1 °F 72.0 °F 49% 30.03 in 10.0 mi WSW 18.4 mph 25.3 mph 0.00 in Rain Light Rain
1:33 PM 86.0 °F 93.8 °F 73.9 °F 67% 30.04 in 10.0 mi SSW 12.7 mph - 0.02 in Rain Light Rain
1:53 PM 84.9 °F 91.4 °F 73.0 °F 67% 30.02 in 10.0 mi West 12.7 mph - 0.02 in   Mostly Cloudy
2:53 PM 90.0 °F 100.2 °F 75.0 °F 61% 30.00 in 10.0 mi SW 9.2 mph - N/A   Mostly Cloudy
3:53 PM 93.9 °F 99.1 °F 69.1 °F 44% 29.99 in 10.0 mi West 8.1 mph - N/A   Mostly Cloudy
4:53 PM 93.0 °F 100.7 °F 72.0 °F 50% 29.98 in 10.0 mi NW 11.5 mph - N/A   Mostly Cloudy
5:53 PM 91.9 °F 97.4 °F 70.0 °F 48% 29.97 in 10.0 mi NW 11.5 mph - N/A   Mostly Cloudy
6:53 PM 88.0 °F 94.7 °F 72.0 °F 59% 29.96 in 10.0 mi SE 3.5 mph - N/A   Mostly Cloudy
7:53 PM 88.0 °F 96.5 °F 73.9 °F 63% 29.97 in 10.0 mi SSW 5.8 mph - N/A   Mostly Cloudy
8:53 PM 87.1 °F 92.8 °F 71.1 °F 59% 29.97 in 10.0 mi WSW 8.1 mph - N/A   Mostly Cloudy
9:53 PM 84.0 °F 89.0 °F 71.1 °F 65% 29.99 in 10.0 mi West 5.8 mph - N/A   Mostly Cloudy
10:53 PM 84.0 °F 89.6 °F 72.0 °F 67% 30.00 in 10.0 mi WSW 5.8 mph - N/A   Mostly Cloudy
11:53 PM 84.0 °F 89.6 °F 72.0 °F 67% 30.00 in 10.0 mi SW 6.9 mph - N/A   Mostly Cloudy